Location: Unspecified
(0.0000°N, 0.0000°E)
Time: 18:51:16
(UTC+00:00)

LAPAN A2 - Visible Passes

Search period start: 13 August 2022 00:00
Search period end: 23 August 2022 00:00
Orbit: 630 x 648 km, 6.0° (Epoch: 13 August)

Date Brightness Start Highest point End Pass type
(mag) Time Alt. Az. Time Alt. Az. Time Alt. Az.
13 Aug ? 03:51:15 20° ESE 03:51:15 20° ESE 03:52:50 10° ESE visible
13 Aug ? 05:28:38 11° WSW 05:32:54 39° S 05:37:19 10° ESE visible
13 Aug ? 19:24:01 10° WNW 19:28:40 50° N 19:30:08 36° NE visible
14 Aug ? 04:12:09 32° SE 04:12:09 32° SE 04:15:17 10° ESE visible
14 Aug ? 19:46:23 10° WNW 19:50:58 58° N 19:50:58 58° N visible
15 Aug ? 04:33:03 39° S 04:33:21 40° S 04:37:46 10° ESE visible
15 Aug ? 18:24:25 10° WNW 18:29:04 51° N 18:33:44 10° E visible
15 Aug ? 20:08:45 10° WNW 20:11:49 39° WNW 20:11:49 39° WNW visible
16 Aug ? 04:53:57 28° SW 04:55:49 42° S 05:00:17 10° ESE visible
16 Aug ? 18:46:46 10° WNW 18:51:30 59° N 18:55:16 16° E visible
16 Aug ? 20:31:08 10° W 20:32:40 20° W 20:32:40 20° W visible
17 Aug ? 03:37:27 14° ESE 03:37:27 14° ESE 03:38:12 10° ESE visible
17 Aug ? 05:14:50 16° WSW 05:18:16 47° S 05:22:47 10° ESE visible
17 Aug ? 19:09:09 10° WNW 19:13:56 72° N 19:16:07 32° E visible
18 Aug ? 03:58:19 27° SE 03:58:19 27° SE 04:00:44 10° ESE visible
18 Aug ? 05:36:07 10° WSW 05:40:43 55° S 05:45:19 10° E visible
18 Aug ? 19:31:33 10° W 19:36:21 87° N 19:36:58 68° E visible
19 Aug ? 04:19:12 46° SSE 04:19:12 46° SSE 04:23:14 10° ESE visible
19 Aug ? 19:53:58 10° W 19:57:49 56° WSW 19:57:49 56° WSW visible
20 Aug ? 04:40:05 44° SW 04:41:09 55° S 04:45:46 10° E visible
20 Aug ? 18:31:56 10° W 18:36:45 88° N 18:41:17 12° E visible
20 Aug ? 20:16:26 10° W 20:18:41 27° W 20:18:41 27° W visible
21 Aug ? 03:23:34 11° ESE 03:23:34 11° ESE 03:23:42 10° E visible
21 Aug ? 05:00:57 25° WSW 05:03:35 66° S 05:08:15 10° E visible
21 Aug ? 18:54:22 10° W 18:59:10 77° S 19:02:09 23° ESE visible
21 Aug ? 20:38:55 10° W 20:39:32 13° W 20:39:32 13° W visible
22 Aug ? 03:44:26 22° ESE 03:44:26 22° ESE 03:46:12 10° E visible
22 Aug ? 05:21:50 13° W 05:26:00 81° S 05:30:42 10° E visible
22 Aug ? 19:16:49 10° W 19:21:35 64° S 19:23:01 42° ESE visible
